VE3WXA Weather Reports


time (UTC)temp
F
wind
direction
speed
knots
gust
knots
rain 1hr
in
rain 24hr
in
rain mn
in
humidity
%
barometer
mb
20260509054802 46 0 0.0 1.7 0.00 0.03 0.00 95 1006.6
20260509054302 46 0 0.9 3.5 0.00 0.03 0.00 95 1006.6
20260509053802 46 139 0.9 3.5 0.00 0.03 0.00 94 1006.5
20260509053549 46 105 0.9 3.5 0.00 0.03 0.00 94 1006.6
20260509052803 46 84 1.7 3.5 0.00 0.03 0.00 94 1006.6
20260509052306 46 0 1.7 4.3 0.00 0.03 0.00 94 1006.6
20260509052048 46 143 1.7 4.3 0.00 0.03 0.00 93 1006.7
20260509051301 46 123 1.7 4.3 0.00 0.03 0.00 93 1006.7
20260509050801 46 158 0.9 3.5 0.00 0.03 0.00 93 1006.8
20260509050301 46 179 0.9 4.3 0.00 0.03 0.00 92 1006.9
20260509045802 46 123 1.7 4.3 0.00 0.03 0.00 92 1006.9
20260509045306 46 213 0.9 4.3 0.00 0.03 0.00 92 1006.9
20260509045048 47 137 1.7 4.3 0.00 0.03 0.00 91 1007.1
20260509044301 47 141 1.7 4.3 0.00 0.03 0.00 91 1007.0
20260509044048 47 102 1.7 4.3 0.00 0.03 0.00 91 1007.2
20260509043302 47 124 1.7 4.3 0.00 0.03 0.00 90 1007.1
20260509042802 47 133 1.7 4.3 0.00 0.03 0.00 90 1007.1
20260509042301 47 139 1.7 4.3 0.00 0.03 0.00 90 1007.1
20260509041802 47 242 1.7 4.3 0.00 0.03 0.00 90 1007.1
20260509041301 47 159 1.7 4.3 0.00 0.03 0.00 90 1007.1
20260509041049 46 110 1.7 4.3 0.00 0.03 0.00 89 1007.2
20260509040302 46 125 1.7 4.3 0.00 0.03 0.00 89 1007.3
20260509035803 46 162 1.7 3.5 0.00 0.03 0.03 89 1007.5
20260509035549 46 126 1.7 4.3 0.00 0.03 0.03 89 1007.5
20260509034803 46 109 1.7 5.2 0.00 0.03 0.03 89 1007.7
20260509034303 47 132 1.7 5.2 0.00 0.03 0.03 89 1007.8
20260509033804 47 118 1.7 3.5 0.00 0.03 0.03 88 1007.8
20260509033302 47 114 1.7 3.5 0.00 0.03 0.03 88 1007.9
20260509032804 47 127 1.7 3.5 0.00 0.03 0.03 88 1007.9
20260509032549 47 147 0.9 3.5 0.00 0.03 0.03 88 1008.0
20260509031803 47 131 0.9 3.5 0.00 0.03 0.03 87 1008.1
20260509031302 47 134 1.7 4.3 0.00 0.03 0.03 87 1008.1
20260509030803 47 117 1.7 4.3 0.00 0.03 0.03 86 1008.1
20260509030302 47 147 1.7 4.3 0.00 0.03 0.03 86 1008.2
20260509030049 48 97 1.7 4.3 0.00 0.03 0.03 86 1008.2
20260509025550 48 125 1.7 6.1 0.00 0.03 0.03 85 1008.3
20260509024802 48 142 1.7 6.1 0.00 0.03 0.03 85 1008.3
20260509024302 48 0 1.7 3.5 0.00 0.03 0.03 85 1008.4
20260509024049 48 178 0.9 3.5 0.00 0.03 0.03 85 1008.5
20260509023302 48 124 0.9 3.5 0.00 0.03 0.03 85 1008.5
20260509022802 49 0 0.9 3.5 0.00 0.03 0.03 84 1008.5
20260509022550 49 134 0.9 2.6 0.00 0.03 0.03 84 1008.5
20260509021802 49 123 0.9 3.5 0.00 0.03 0.03 84 1008.6
20260509021302 49 194 0.9 3.5 0.00 0.03 0.03 84 1008.5
20260509020802 49 0 0.9 3.5 0.00 0.03 0.03 83 1008.6
20260509020302 50 175 0.9 3.5 0.00 0.03 0.03 83 1008.6
20260509020050 50 0 0.9 3.5 0.00 0.03 0.03 83 1008.6
20260509015301 50 117 0.9 3.5 0.00 0.03 0.03 82 1008.6
20260509015049 50 121 0.9 4.3 0.00 0.03 0.03 82 1008.6
20260509014301 51 109 1.7 5.2 0.00 0.03 0.03 81 1008.4
20260509013801 51 0 1.7 5.2 0.00 0.03 0.03 81 1008.2
20260509013302 51 184 1.7 5.2 0.00 0.03 0.03 80 1008.1
20260509012802 51 120 1.7 5.2 0.00 0.03 0.03 80 1008.2
20260509012302 51 223 1.7 5.2 0.00 0.03 0.03 80 1008.2
20260509011801 51 220 0.9 5.2 0.00 0.03 0.03 79 1008.2
20260509011302 51 152 0.9 3.5 0.00 0.03 0.03 79 1008.1
20260509010801 52 236 0.9 5.2 0.00 0.03 0.03 78 1008.0
20260509010302 52 49 0.9 5.2 0.00 0.03 0.03 77 1007.9
20260509005803 52 206 0.9 5.2 0.00 0.03 0.03 77 1007.9
20260509005702 53 113 0.9 3.5 0.00 0.03 0.03 75 1007.9
20260509005656 53 0 0.9 3.5 0.00 0.03 0.03 74 1007.8
20260509005651 52 231 0.9 4.3 0.00 0.03 0.03 76 1007.9
20260509003803 54 0 0.9 3.5 0.00 0.03 0.03 73 1007.8
20260509003302 54 256 0.9 3.5 0.00 0.03 0.03 72 1007.7
20260509002802 54 119 1.7 4.3 0.00 0.03 0.03 71 1007.5
20260509002306 55 181 1.7 5.2 0.00 0.03 0.03 70 1007.4
20260509001802 55 68 1.7 5.2 0.00 0.03 0.03 69 1007.3
20260509001550 55 0 0.9 3.5 0.00 0.03 0.03 68 1007.4
20260509000802 55 99 1.7 5.2 0.00 0.03 0.03 68 1007.4
20260509000305 56 245 1.7 5.2 0.00 0.03 0.03 67 1007.3
20260508235805 56 246 1.7 4.3 0.00 0.03 0.03 66 1007.3
20260508235306 56 148 1.7 5.2 0.00 0.03 0.03 65 1007.3
20260508234802 56 207 1.7 6.1 0.00 0.03 0.03 64 1007.3
20260508234544 57 212 2.6 6.1 0.00 0.03 0.03 63 1007.3
20260508234043 57 232 2.6 5.2 0.00 0.03 0.03 62 1007.3
20260508233302 58 239 2.6 7.8 0.00 0.03 0.03 61 1007.4
20260508232802 58 115 2.6 7.8 0.00 0.03 0.03 57 1007.2
20260508232302 58 225 2.6 7.0 0.00 0.03 0.03 56 1007.2
20260508231803 58 198 2.6 7.8 0.00 0.03 0.03 57 1007.1
20260508231302 58 196 3.5 7.8 0.00 0.03 0.03 56 1007.1
20260508230837 59 202 2.6 7.8 0.00 0.03 0.03 55 1007.1
20260508230826 59 220 3.5 7.8 0.00 0.03 0.03 55 1007.1
20260508225802 59 210 3.5 9.6 0.00 0.03 0.03 54 1007.1
20260508225336 59 215 2.6 7.0 0.00 0.03 0.03 53 1007.1
20260508225325 59 209 2.6 9.6 0.00 0.03 0.03 54 1007.1
20260508224545 59 233 3.5 7.0 0.00 0.03 0.03 53 1007.0
20260508223801 59 222 2.6 7.0 0.00 0.03 0.03 55 1007.1
20260508223301 58 207 2.6 6.1 0.00 0.03 0.03 56 1007.2
20260508223043 58 193 2.6 7.8 0.00 0.03 0.03 56 1007.3
20260508222301 59 222 2.6 7.8 0.00 0.03 0.03 55 1007.4
20260508221801 59 220 2.6 7.8 0.00 0.03 0.03 54 1007.3
20260508221301 59 238 3.5 7.8 0.00 0.03 0.03 54 1007.2
20260508220802 59 183 2.6 7.0 0.00 0.03 0.03 53 1007.2
20260508220302 58 207 2.6 7.0 0.00 0.03 0.03 57 1007.3
20260508215802 58 115 2.6 6.1 0.00 0.03 0.03 57 1007.7
20260508215306 59 143 2.6 6.1 0.00 0.03 0.03 56 1007.5
20260508215045 59 213 3.5 8.7 0.00 0.03 0.03 55 1007.4
20260508214303 58 200 3.5 8.7 0.00 0.03 0.03 56 1007.4
20260508213803 58 208 3.5 8.7 0.00 0.03 0.03 57 1007.7
20260508213303 59 155 4.3 8.7 0.00 0.03 0.03 55 1007.7
20260508212803 60 208 4.3 9.6 0.00 0.03 0.03 55 1007.5
20260508212306 60 242 3.5 9.6 0.00 0.03 0.03 54 1007.3
20260508211803 61 237 2.6 7.8 0.00 0.03 0.03 51 1007.1
20260508211303 61 227 1.7 5.2 0.00 0.03 0.03 41 1007.4
20260508210803 60 260 1.7 4.3 0.00 0.03 0.03 44 1007.5
20260508210303 61 218 1.7 5.2 0.00 0.03 0.03 41 1007.8
20260508205802 61 228 1.7 5.2 0.00 0.03 0.03 44 1007.8
20260508205305 61 173 1.7 5.2 0.00 0.03 0.03 42 1007.8
20260508204802 61 280 1.7 8.7 0.00 0.03 0.03 43 1008.0
20260508204302 61 208 2.6 8.7 0.00 0.03 0.03 41 1008.1
20260508204045 61 225 3.5 8.7 0.00 0.03 0.03 43 1008.0
20260508203302 62 180 3.5 8.7 0.00 0.03 0.03 40 1008.0
20260508202802 62 249 2.6 7.8 0.00 0.03 0.03 41 1008.1
20260508202306 62 171 1.7 6.1 0.00 0.03 0.03 39 1008.3
20260508201802 63 215 1.7 6.1 0.00 0.03 0.03 39 1008.2
20260508201302 62 170 1.7 6.1 0.00 0.03 0.03 40 1008.1
20260508200802 63 308 1.7 6.1 0.00 0.03 0.03 40 1008.0
20260508200302 63 284 1.7 5.2 0.00 0.03 0.03 40 1007.7
20260508195801 63 207 1.7 5.2 0.00 0.03 0.03 41 1007.5
20260508195305 64 138 1.7 4.3 0.00 0.03 0.03 39 1007.5
20260508194758 63 327 1.7 6.1 0.00 0.03 0.03 38 1007.8
20260508194258 63 313 1.7 7.0 0.00 0.03 0.03 38 1007.8
20260508193754 62 264 2.6 7.0 0.00 0.03 0.03 38 1007.5
20260508193255 62 220 1.7 7.0 0.00 0.03 0.03 39 1007.8
20260508192754 62 293 2.6 7.0 0.00 0.03 0.03 39 1008.1
20260508192538 62 199 2.6 7.0 0.00 0.03 0.03 39 1008.2
20260508191756 62 283 2.6 7.8 0.00 0.03 0.03 39 1008.3
20260508191255 62 215 1.7 7.8 0.00 0.03 0.03 40 1008.1
20260508190756 61 219 1.7 7.8 0.00 0.03 0.03 42 1008.2
20260508190256 61 44 1.7 7.8 0.00 0.03 0.03 41 1008.5
20260508185755 62 0 1.7 5.2 0.00 0.03 0.03 40 1008.3
20260508185618 62 230 1.7 8.7 0.00 0.03 0.03 39 1008.7
20260508185318 62 217 1.7 8.7 0.00 0.03 0.03 41 1008.2
20260508184253 63 285 1.7 5.2 0.00 0.03 0.03 41 1008.3
20260508183753 62 225 1.7 5.2 0.00 0.03 0.03 41 1008.4
20260508183255 62 300 2.6 6.1 0.00 0.03 0.03 38 1008.5
20260508182753 62 290 2.6 7.8 0.00 0.03 0.03 39 1008.6
20260508182253 63 171 1.7 7.8 0.00 0.03 0.03 38 1008.6
20260508181754 63 218 1.7 6.1 0.00 0.03 0.03 41 1008.4
20260508181254 62 199 1.7 6.1 0.00 0.03 0.03 38 1008.5
20260508180753 62 37 1.7 6.1 0.00 0.03 0.03 38 1008.6
20260508180254 62 163 1.7 5.2 0.00 0.03 0.03 38 1008.8
20260508175908 62 294 1.7 5.2 0.00 0.03 0.03 39 1008.8
20260508175903 62 307 1.7 7.0 0.00 0.03 0.03 39 1008.9
20260508175845 62 37 1.7 5.2 0.00 0.03 0.03 38 1008.7
20260508174539 62 292 1.7 7.0 0.00 0.03 0.03 40 1009.0
20260508173752 63 190 1.7 7.0 0.00 0.03 0.03 38 1009.0
20260508173540 62 308 1.7 7.0 0.00 0.03 0.03 37 1009.0
20260508172751 61 232 1.7 6.1 0.00 0.03 0.03 38 1009.1
20260508172249 61 286 1.7 6.1 0.00 0.03 0.03 39 1009.1
20260508171749 61 328 1.7 6.1 0.00 0.03 0.03 37 1008.8
20260508171249 60 21 1.7 5.2 0.00 0.03 0.03 39 1009.2
20260508171039 60 289 1.7 5.2 0.00 0.03 0.03 39 1009.7
20260508170249 60 295 0.9 5.2 0.00 0.03 0.03 41 1009.3
20260508165748 60 0 1.7 5.2 0.00 0.03 0.03 39 1010.7
20260508165248 61 343 2.6 6.1 0.00 0.03 0.03 39 1009.9
20260508164748 62 301 1.7 6.1 0.00 0.03 0.03 39 1009.4
20260508164248 61 0 1.7 5.2 0.00 0.03 0.03 40 1009.5
20260508163748 61 292 1.7 5.2 0.00 0.03 0.03 39 1009.4
20260508163245 61 267 1.7 6.1 0.00 0.03 0.03 39 1009.5
20260508162746 61 0 1.7 6.1 0.00 0.03 0.03 41 1009.5
20260508162530 61 213 1.7 5.2 0.00 0.03 0.03 42 1009.5
20260508161743 61 294 1.7 5.2 0.00 0.03 0.03 42 1009.5
20260508161245 61 282 1.7 7.8 0.00 0.03 0.03 43 1009.6
20260508160745 60 197 1.7 7.8 0.00 0.03 0.03 42 1009.5
20260508160243 60 0 1.7 6.1 0.00 0.03 0.03 42 1009.7
20260508155744 59 104 1.7 6.1 0.00 0.03 0.03 43 1009.9
20260508155245 59 252 1.7 5.2 0.00 0.03 0.03 42 1009.7
20260508154745 58 0 2.6 7.8 0.00 0.03 0.03 43 1009.9
20260508154240 58 273 2.6 7.8 0.00 0.03 0.03 45 1010.0
20260508153740 59 317 1.7 6.1 0.00 0.03 0.03 43 1009.8
20260508153242 59 268 1.7 5.2 0.00 0.03 0.03 44 1009.7
20260508152740 59 150 1.7 5.2 0.00 0.03 0.03 44 1009.7
20260508152241 58 346 1.7 5.2 0.00 0.03 0.03 45 1009.8
20260508151739 58 277 0.9 5.2 0.00 0.03 0.03 47 1009.8
20260508151240 58 339 1.7 5.2 0.00 0.03 0.03 47 1009.8
20260508150739 57 33 1.7 5.2 0.00 0.03 0.03 48 1010.1
20260508150241 57 19 1.7 6.1 0.00 0.03 0.03 46 1010.0
20260508145740 57 281 1.7 6.1 0.00 0.03 0.03 45 1009.9
20260508145240 57 165 1.7 4.3 0.00 0.03 0.03 49 1010.0
20260508144819 57 347 1.7 3.5 0.00 0.03 0.03 48 1009.9
20260508144807 57 290 1.7 4.3 0.00 0.03 0.03 46 1010.0
20260508144029 56 32 1.7 3.5 0.00 0.03 0.03 49 1009.9
20260508143238 56 0 1.7 3.5 0.00 0.03 0.03 52 1010.2
20260508143026 56 169 1.7 5.2 0.00 0.03 0.03 49 1010.2
20260508142524 55 154 1.7 5.2 0.00 0.03 0.03 53 1010.1
20260508141735 56 331 1.7 5.2 0.00 0.03 0.03 52 1010.2
20260508141236 56 307 0.9 5.2 0.00 0.03 0.03 53 1010.2
20260508140736 56 236 1.7 6.1 0.00 0.03 0.03 51 1010.2
20260508140524 55 354 1.7 6.1 0.00 0.03 0.03 52 1010.1
20260508140024 55 0 0.9 3.5 0.00 0.03 0.03 53 1010.1
20260508135237 54 165 0.9 3.5 0.00 0.03 0.03 55 1010.0
20260508134736 53 0 0.9 3.5 0.00 0.03 0.03 58 1010.2
20260508134236 53 0 1.7 5.2 0.00 0.03 0.03 57 1010.3
20260508134024 53 286 1.7 5.2 0.00 0.03 0.03 58 1010.4
20260508133231 53 339 1.7 4.3 0.00 0.03 0.03 59 1010.4
20260508132731 53 273 0.9 3.5 0.00 0.03 0.03 60 1010.2
20260508132310 52 0 0.9 4.3 0.00 0.03 0.03 61 1010.2
20260508132253 53 284 0.9 4.3 0.00 0.03 0.03 60 1010.1
20260508131230 52 268 0.9 2.6 0.00 0.03 0.03 60 1010.2
20260508130730 51 0 1.7 3.5 0.00 0.03 0.03 64 1010.2
20260508130229 51 298 0.9 3.5 0.00 0.03 0.03 65 1010.2
20260508125729 51 0 0.9 3.5 0.00 0.03 0.03 66 1010.0
20260508125230 51 7 0.9 3.5 0.00 0.03 0.03 68 1010.0
20260508124729 51 0 0.9 3.5 0.00 0.03 0.03 69 1010.0
20260508124229 50 0 0.9 2.6 0.00 0.03 0.03 71 1009.9
20260508123729 50 323 0.9 2.6 0.00 0.03 0.03 72 1010.0
20260508123232 49 8 0.9 2.6 0.00 0.03 0.03 74 1010.0
20260508122809 48 292 0.9 2.6 0.00 0.03 0.03 75 1009.9
20260508122756 48 300 0.9 2.6 0.00 0.03 0.03 73 1010.0
20260508121730 48 11 0.9 2.6 0.00 0.03 0.03 74 1010.0
20260508121512 48 282 0.0 1.7 0.00 0.03 0.03 75 1010.0
20260508120730 48 0 0.0 1.7 0.00 0.03 0.03 76 1010.0
20260508120230 48 285 0.9 2.6 0.00 0.03 0.03 76 1010.1
20260508115731 47 0 0.9 2.6 0.00 0.03 0.03 77 1010.1
20260508115230 47 292 0.0 1.7 0.00 0.03 0.03 76 1010.2
20260508114730 47 0 0.0 1.7 0.00 0.03 0.03 75 1010.2
20260508114308 45 0 0.0 0.0 0.00 0.03 0.03 80 1010.2
20260508114256 46 0 0.0 0.9 0.00 0.03 0.03 79 1010.2
20260508113230 43 0 0.0 0.9 0.00 0.03 0.03 83 1010.2
20260508112730 42 0 0.0 0.9 0.00 0.03 0.03 86 1010.3
20260508112229 40 199 0.0 0.9 0.00 0.03 0.03 93 1010.5
20260508111729 39 0 0.0 0.0 0.00 0.03 0.03 95 1010.4
20260508111546 37 0 0.0 0.0 0.00 0.03 0.03 96 1010.8
20260508111253 38 0 0.0 0.0 0.00 0.03 0.03 96 1010.6
20260508110228 37 0 0.0 0.0 0.00 0.03 0.03 96 1010.9
20260508105729 37 0 0.0 0.0 0.00 0.03 0.03 96 1010.9
20260508105512 36 0 0.0 0.0 0.00 0.03 0.03 96 1010.9
20260508104729 36 0 0.0 0.0 0.00 0.03 0.03 95 1010.9
20260508104228 36 0 0.0 0.0 0.00 0.03 0.03 95 1010.8
20260508103728 36 0 0.0 0.0 0.00 0.03 0.03 95 1011.0
20260508103228 36 0 0.0 0.0 0.00 0.03 0.03 95 1011.0
20260508102729 36 0 0.0 0.0 0.00 0.03 0.03 95 1011.0
20260508102227 36 0 0.0 0.0 0.00 0.03 0.03 94 1011.1
20260508101728 37 0 0.0 0.0 0.00 0.03 0.03 94 1011.1
20260508101228 37 0 0.0 0.0 0.00 0.03 0.03 94 1011.0
20260508100728 37 0 0.0 0.0 0.00 0.03 0.03 94 1011.1
20260508100227 37 0 0.0 0.0 0.01 0.03 0.03 94 1011.1
20260508095728 37 0 0.0 0.0 0.02 0.03 0.03 93 1011.2
20260508095228 37 0 0.0 0.0 0.03 0.03 0.03 93 1011.1
20260508094728 38 0 0.0 0.0 0.03 0.03 0.03 92 1011.1
20260508094228 38 0 0.0 0.0 0.03 0.03 0.03 92 1011.2
20260508093726 38 0 0.0 0.0 0.03 0.03 0.03 91 1011.2
20260508093226 38 0 0.0 1.7 0.03 0.03 0.03 91 1011.2
20260508092726 39 0 0.0 1.7 0.03 0.03 0.03 91 1011.2
20260508092227 39 0 0.0 1.7 0.03 0.03 0.03 90 1011.3
20260508091723 40 0 0.0 1.7 0.03 0.03 0.03 89 1011.3
20260508091505 40 0 0.0 2.6 0.03 0.03 0.03 88 1011.2
20260508090723 40 93 0.9 2.6 0.02 0.03 0.02 88 1010.9
20260508090508 40 188 0.0 2.6 0.01 0.02 0.01 87 1011.0
20260508090006 39 0 0.0 0.9 0.00 0.01 0.00 85 1011.0
20260508085505 39 0 0.0 0.9 0.00 0.00 0.00 85 1010.8
20260508084723 39 0 0.0 0.9 0.00 0.00 0.00 84 1010.8
20260508084508 39 0 0.0 0.0 0.00 0.00 0.00 83 1010.8
20260508083723 40 0 0.0 0.9 0.00 0.00 0.00 83 1010.9
20260508083223 40 0 0.0 0.9 0.00 0.00 0.00 83 1010.9
20260508082723 40 0 0.0 0.0 0.00 0.00 0.00 83 1011.0
20260508082222 40 0 0.0 0.9 0.00 0.00 0.00 82 1011.0
20260508081722 40 0 0.0 1.7 0.00 0.00 0.00 82 1010.9
20260508081222 40 134 0.0 1.7 0.00 0.00 0.00 84 1010.7
20260508081006 40 0 0.0 1.7 0.00 0.00 0.00 83 1010.8
20260508080217 40 247 0.0 1.7 0.00 0.00 0.00 84 1010.8
20260508075717 40 0 0.0 1.7 0.00 0.00 0.00 84 1010.7
20260508075219 40 0 0.0 1.7 0.00 0.00 0.00 85 1010.6
20260508074718 40 170 0.0 1.7 0.00 0.00 0.00 84 1010.5
20260508074217 40 0 0.0 0.0 0.00 0.00 0.00 83 1010.9
20260508073717 40 0 0.0 0.9 0.00 0.00 0.00 83 1010.8
20260508073219 40 0 0.0 0.9 0.00 0.00 0.00 83 1010.7
20260508072719 40 0 0.0 0.9 0.00 0.00 0.00 83 1010.6
20260508072502 40 0 0.0 0.9 0.00 0.00 0.00 83 1010.6
20260508071717 40 0 0.0 0.0 0.00 0.00 0.00 80 1010.6
20260508071216 39 0 0.0 0.0 0.00 0.00 0.00 82 1010.6
20260508070717 39 0 0.0 0.0 0.00 0.00 0.00 82 1010.7
20260508070217 39 0 0.0 0.9 0.00 0.00 0.00 83 1010.7
20260508065716 39 0 0.0 0.9 0.00 0.00 0.00 83 1010.8
20260508065217 39 0 0.0 0.9 0.00 0.00 0.00 85 1011.1
20260508064716 39 0 0.0 0.0 0.00 0.00 0.00 85 1011.1
20260508064213 39 0 0.0 0.0 0.00 0.00 0.00 84 1011.3
20260508064001 39 0 0.0 0.9 0.00 0.00 0.00 83 1011.5
20260508063213 39 0 0.0 0.9 0.00 0.00 0.00 84 1011.4
20260508062738 40 0 0.0 0.0 0.00 0.00 0.00 84 1011.5
20260508062729 39 0 0.0 0.9 0.00 0.00 0.00 84 1011.4
20260508061713 40 0 0.0 0.0 0.00 0.00 0.00 84 1011.5
20260508061213 40 0 0.0 0.0 0.00 0.00 0.00 84 1011.5
20260508060749 40 0 0.0 0.0 0.00 0.00 0.00 83 1011.7
20260508060738 40 0 0.0 0.0 0.00 0.00 0.00 84 1011.6
20260508060000 40 0 0.0 0.9 0.00 0.00 0.00 82 1011.8
20260508055214 41 0 0.0 0.9 0.00 0.00 0.00 82 1011.5